DAL7912 KBNA-KLGA

Flight info

Callsign DAL7912
Flight time 2h 11m
Altitude 39000
Route KRSTA4 OLSIE IIU Q139 CREEP Q29 WWSHR TEESY Q186 WEVEL ETG MIP4
Aircraft BCS1/M-SBDE2E3GIRWXY/LB1

Departure

Time 2026-05-06 00:09
Airport Nashville International Airport (KBNA)

Arrival

Time 2026-05-06 02:20
Airport LaGuardia Airport (KLGA)
Time Latitude Longitude Altitude Speed Heading
2026-05-05 23:43 36.13310 -86.67167 571 ft 0 kts 202°
2026-05-06 00:00 36.13313 -86.67165 575 ft 3 kts 201°
2026-05-06 00:00 36.13339 -86.67154 569 ft 4 kts 194°
2026-05-06 00:01 36.13365 -86.67146 569 ft 4 kts 205°
2026-05-06 00:01 36.13378 -86.67132 571 ft 0 kts 266°
2026-05-06 00:06 36.13381 -86.67167 570 ft 11 kts 283°
2026-05-06 00:06 36.13406 -86.67259 570 ft 11 kts 288°
2026-05-06 00:06 36.13428 -86.67347 567 ft 11 kts 287°
2026-05-06 00:06 36.13463 -86.67486 570 ft 31 kts 286°
2026-05-06 00:07 36.13503 -86.67651 571 ft 13 kts 288°
2026-05-06 00:07 36.13529 -86.67738 571 ft 9 kts 302°
2026-05-06 00:07 36.13575 -86.67755 574 ft 4 kts 25°
2026-05-06 00:07 36.13632 -86.67727 569 ft 12 kts 15°
2026-05-06 00:08 36.13706 -86.67709 569 ft 10 kts
2026-05-06 00:08 36.13745 -86.67743 570 ft 7 kts 296°
2026-05-06 00:08 36.13763 -86.67827 574 ft 14 kts 271°
2026-05-06 00:08 36.13661 -86.67907 575 ft 33 kts 197°
2026-05-06 00:09 36.13157 -86.68103 582 ft 118 kts 198°
2026-05-06 00:09 36.12130 -86.68494 780 ft 174 kts 197°
2026-05-06 00:09 36.11021 -86.68909 1525 ft 158 kts 197°
2026-05-06 00:09 36.10058 -86.69395 2209 ft 151 kts 208°
2026-05-06 00:10 36.09200 -86.70373 2680 ft 191 kts 228°
2026-05-06 00:10 36.08406 -86.71913 2938 ft 236 kts 239°
2026-05-06 00:10 36.07772 -86.73789 3662 ft 236 kts 244°
2026-05-06 00:10 36.07362 -86.75716 4180 ft 235 kts 258°
2026-05-06 00:11 36.07299 -86.77726 4808 ft 234 kts 266°
2026-05-06 00:11 36.07404 -86.79748 5443 ft 238 kts 270°
2026-05-06 00:11 36.07587 -86.81782 6049 ft 236 kts 273°
2026-05-06 00:11 36.07865 -86.83804 6577 ft 245 kts 280°
2026-05-06 00:12 36.08446 -86.85802 6780 ft 253 kts 297°
2026-05-06 00:12 36.09833 -86.87222 6920 ft 275 kts 334°
2026-05-06 00:12 36.11805 -86.87413 7157 ft 299 kts
2026-05-06 00:12 36.13838 -86.86732 7980 ft 303 kts 11°
2026-05-06 00:13 36.15844 -86.86003 9308 ft 296 kts
2026-05-06 00:13 36.17835 -86.85502 10274 ft 297 kts
2026-05-06 00:13 36.19977 -86.84946 10567 ft 330 kts
2026-05-06 00:13 36.22202 -86.84196 11337 ft 335 kts
2026-05-06 00:14 36.24475 -86.83601 12202 ft 338 kts
2026-05-06 00:14 36.26825 -86.82926 13092 ft 355 kts
2026-05-06 00:14 36.29266 -86.82158 13973 ft 369 kts
2026-05-06 00:14 36.31776 -86.81190 14764 ft 392 kts 23°
2026-05-06 00:15 36.34101 -86.79256 15608 ft 410 kts 34°
2026-05-06 00:15 36.36322 -86.76949 16488 ft 422 kts 37°
2026-05-06 00:15 36.38535 -86.74477 17386 ft 432 kts 39°
2026-05-06 00:15 36.40650 -86.71756 18295 ft 444 kts 47°
2026-05-06 00:16 36.42610 -86.68763 19093 ft 450 kts 45°
2026-05-06 00:16 36.44731 -86.65947 19908 ft 454 kts 42°
2026-05-06 00:16 36.46861 -86.63006 20770 ft 461 kts 46°
2026-05-06 00:16 36.48971 -86.59975 21647 ft 464 kts 42°
2026-05-06 00:17 36.51182 -86.57040 22538 ft 468 kts 44°
2026-05-06 00:17 36.53300 -86.53942 23394 ft 472 kts 44°
2026-05-06 00:17 36.55552 -86.50938 23983 ft 477 kts 40°
2026-05-06 00:17 36.57949 -86.48390 24481 ft 477 kts 30°
2026-05-06 00:18 36.60740 -86.46128 25084 ft 479 kts 25°
2026-05-06 00:18 36.63692 -86.44231 25683 ft 476 kts 14°
2026-05-06 00:18 36.66818 -86.42849 26322 ft 477 kts 11°
2026-05-06 00:18 36.69950 -86.41388 27013 ft 485 kts 15°
2026-05-06 00:19 36.73066 -86.39740 27754 ft 489 kts 18°
2026-05-06 00:19 36.76086 -86.37700 28487 ft 497 kts 22°
2026-05-06 00:19 36.79116 -86.35661 29260 ft 492 kts 17°
2026-05-06 00:19 36.82202 -86.33802 30035 ft 495 kts 20°
2026-05-06 00:20 36.85222 -86.31708 30699 ft 494 kts 19°
2026-05-06 00:20 36.88293 -86.29828 31387 ft 491 kts 16°
2026-05-06 00:20 36.91326 -86.27806 32062 ft 495 kts 19°
2026-05-06 00:20 36.94359 -86.25834 32774 ft 488 kts 14°
2026-05-06 00:21 36.97358 -86.23950 33408 ft 492 kts 18°
2026-05-06 00:21 37.00357 -86.21894 34025 ft 488 kts 15°
2026-05-06 00:21 37.03399 -86.20034 34585 ft 487 kts 15°
2026-05-06 00:21 37.06391 -86.17983 35156 ft 489 kts 17°
2026-05-06 00:22 37.09402 -86.16082 35743 ft 482 kts 13°
2026-05-06 00:22 37.12387 -86.14128 36337 ft 486 kts 17°
2026-05-06 00:22 37.15356 -86.12136 36919 ft 478 kts 12°
2026-05-06 00:22 37.18340 -86.10290 37494 ft 480 kts 16°
2026-05-06 00:23 37.21214 -86.08042 37909 ft 502 kts 28°
2026-05-06 00:23 37.23660 -86.04710 38030 ft 541 kts 49°
2026-05-06 00:23 37.25300 -86.00390 38211 ft 570 kts 68°
2026-05-06 00:23 37.26225 -85.95526 38560 ft 568 kts 71°
2026-05-06 00:24 37.27103 -85.90771 38691 ft 553 kts 67°
2026-05-06 00:24 37.29581 -85.81789 38808 ft 533 kts 49°
2026-05-06 00:24 37.31692 -85.78121 38819 ft 505 kts 30°
2026-05-06 00:25 37.34399 -85.75576 38821 ft 471 kts 10°
2026-05-06 00:25 37.37385 -85.74360 38827 ft 434 kts 351°
2026-05-06 00:25 37.40342 -85.74201 38872 ft 422 kts 346°
2026-05-06 00:26 37.46210 -85.74363 38843 ft 422 kts 345°
2026-05-06 00:26 37.52077 -85.74607 38827 ft 421 kts 345°
2026-05-06 00:27 37.57927 -85.74858 38824 ft 420 kts 345°
2026-05-06 00:27 37.63725 -85.75112 38822 ft 420 kts 345°
2026-05-06 00:28 37.69657 -85.74866 38828 ft 449 kts
2026-05-06 00:28 37.72709 -85.73713 38829 ft 464 kts
2026-05-06 00:28 37.75735 -85.72236 38826 ft 469 kts
2026-05-06 00:28 37.78736 -85.70527 38817 ft 480 kts 15°
2026-05-06 00:29 37.81649 -85.68384 38817 ft 485 kts 17°
2026-05-06 00:29 37.84593 -85.66407 38815 ft 473 kts
2026-05-06 00:29 37.87624 -85.65261 38859 ft 437 kts 349°
2026-05-06 00:29 37.90511 -85.65501 38838 ft 402 kts 329°
2026-05-06 00:30 37.93182 -85.66514 38824 ft 411 kts 341°
2026-05-06 00:30 37.96155 -85.66443 38826 ft 451 kts
2026-05-06 00:30 37.99170 -85.64879 38823 ft 490 kts 22°
2026-05-06 00:30 38.01816 -85.61915 38826 ft 526 kts 43°
2026-05-06 00:31 38.03720 -85.57890 38823 ft 553 kts 62°
2026-05-06 00:31 38.05215 -85.53390 38820 ft 547 kts 50°
2026-05-06 00:31 38.07379 -85.49590 38822 ft 519 kts 32°
2026-05-06 00:31 38.10018 -85.46574 38827 ft 507 kts 26°
2026-05-06 00:32 38.12775 -85.43797 38836 ft 504 kts 25°
2026-05-06 00:32 38.18343 -85.38459 38828 ft 499 kts 24°
2026-05-06 00:33 38.23950 -85.33301 38824 ft 492 kts 21°
2026-05-06 00:33 38.29657 -85.28527 38824 ft 491 kts 20°
2026-05-06 00:34 38.35400 -85.23820 38830 ft 490 kts 20°
2026-05-06 00:34 38.41143 -85.19124 38827 ft 490 kts 20°
2026-05-06 00:35 38.46892 -85.14430 38828 ft 490 kts 20°
2026-05-06 00:35 38.52658 -85.09729 38832 ft 491 kts 19°
2026-05-06 00:36 38.58378 -85.05080 38845 ft 491 kts 19°
2026-05-06 00:36 38.64144 -85.00423 38831 ft 489 kts 19°
2026-05-06 00:37 38.69888 -84.95774 38833 ft 487 kts 19°
2026-05-06 00:37 38.75624 -84.91139 38832 ft 488 kts 19°
2026-05-06 00:38 38.81383 -84.86502 38842 ft 491 kts 19°
2026-05-06 00:38 38.87181 -84.81840 38830 ft 491 kts 19°
2026-05-06 00:39 38.92985 -84.77207 38821 ft 485 kts 14°
2026-05-06 00:39 38.96012 -84.75612 38826 ft 463 kts
2026-05-06 00:39 38.99090 -84.74442 38827 ft 460 kts
2026-05-06 00:39 39.02161 -84.73654 38837 ft 435 kts 346°
2026-05-06 00:40 39.05099 -84.73928 38838 ft 419 kts 339°
2026-05-06 00:40 39.10841 -84.75010 38828 ft 419 kts 339°
2026-05-06 00:41 39.16635 -84.76001 38824 ft 421 kts 340°
2026-05-06 00:41 39.22485 -84.76748 38827 ft 424 kts 342°
2026-05-06 00:41 39.25508 -84.76632 38856 ft 452 kts 359°
2026-05-06 00:42 39.28616 -84.75499 38848 ft 473 kts
2026-05-06 00:42 39.33729 -84.72658 38846 ft 493 kts 18°
2026-05-06 00:43 39.39678 -84.68158 38849 ft 487 kts 13°
2026-05-06 00:43 39.45670 -84.63937 38883 ft 493 kts 17°
2026-05-06 00:44 39.51659 -84.59792 38856 ft 493 kts 19°
2026-05-06 00:44 39.57640 -84.55585 38840 ft 489 kts 17°
2026-05-06 00:45 39.63603 -84.51285 38843 ft 486 kts 14°
2026-05-06 00:45 39.69560 -84.46956 38861 ft 488 kts 14°
2026-05-06 00:46 39.75504 -84.42696 38848 ft 493 kts 16°
2026-05-06 00:46 39.81504 -84.38473 38850 ft 495 kts 19°
2026-05-06 00:47 39.87497 -84.34244 38841 ft 493 kts 18°
2026-05-06 00:47 39.93258 -84.29165 38855 ft 507 kts 26°
2026-05-06 00:48 39.98509 -84.22822 38846 ft 522 kts 37°
2026-05-06 00:48 40.03705 -84.16330 38843 ft 523 kts 34°
2026-05-06 00:48 40.06285 -84.12882 38848 ft 537 kts 36°
2026-05-06 00:49 40.08950 -84.09540 38859 ft 522 kts 31°
2026-05-06 00:49 40.14129 -84.02879 38867 ft 518 kts 32°
2026-05-06 00:50 40.19313 -83.96298 38867 ft 522 kts 34°
2026-05-06 00:50 40.24497 -83.89787 38867 ft 524 kts 36°
2026-05-06 00:51 40.29691 -83.83211 38864 ft 520 kts 35°
2026-05-06 00:51 40.34841 -83.76574 38887 ft 516 kts 32°
2026-05-06 00:52 40.39977 -83.69874 38876 ft 515 kts 31°
2026-05-06 00:52 40.45115 -83.63190 38869 ft 518 kts 32°
2026-05-06 00:53 40.50250 -83.56600 38873 ft 523 kts 35°
2026-05-06 00:53 40.55429 -83.50009 38868 ft 522 kts 36°
2026-05-06 00:54 40.60575 -83.43394 38867 ft 517 kts 35°
2026-05-06 00:54 40.65682 -83.36712 38866 ft 514 kts 32°
2026-05-06 00:55 40.70696 -83.29939 38859 ft 523 kts 39°
2026-05-06 00:55 40.72998 -83.26064 38892 ft 535 kts 45°
2026-05-06 00:55 40.75149 -83.22056 38872 ft 531 kts 41°
2026-05-06 00:56 40.79694 -83.14515 38876 ft 533 kts 45°
2026-05-06 00:56 40.84220 -83.06891 38875 ft 528 kts 44°
2026-05-06 00:57 40.88696 -82.99195 38874 ft 524 kts 41°
2026-05-06 00:57 40.93135 -82.91453 38892 ft 525 kts 39°
2026-05-06 00:58 40.97594 -82.83714 38867 ft 528 kts 41°
2026-05-06 00:58 41.02085 -82.76028 38858 ft 530 kts 44°
2026-05-06 00:59 41.06568 -82.68399 38861 ft 528 kts 45°
2026-05-06 00:59 41.10991 -82.60814 38858 ft 526 kts 44°
2026-05-06 01:00 41.15204 -82.52774 38876 ft 534 kts 49°
2026-05-06 01:00 41.17001 -82.48391 38878 ft 545 kts 56°
2026-05-06 01:00 41.18642 -82.43834 38876 ft 542 kts 52°
2026-05-06 01:01 41.22278 -82.35108 38874 ft 544 kts 56°
2026-05-06 01:01 41.25847 -82.26373 38876 ft 539 kts 54°
2026-05-06 01:02 41.29357 -82.17579 38879 ft 536 kts 51°
2026-05-06 01:02 41.32813 -82.08762 38888 ft 539 kts 53°
2026-05-06 01:02 41.34238 -82.04060 38879 ft 558 kts 70°
2026-05-06 01:03 41.34867 -81.98962 38864 ft 570 kts 83°
2026-05-06 01:03 41.34986 -81.88370 38859 ft 571 kts 81°
2026-05-06 01:04 41.35611 -81.77860 38858 ft 572 kts 85°
2026-05-06 01:04 41.36128 -81.67341 38860 ft 570 kts 83°
2026-05-06 01:05 41.36563 -81.56834 38867 ft 565 kts 80°
2026-05-06 01:05 41.36966 -81.46351 38868 ft 565 kts 79°
2026-05-06 01:06 41.37394 -81.35873 38865 ft 567 kts 81°
2026-05-06 01:06 41.37867 -81.25470 38863 ft 569 kts 84°
2026-05-06 01:07 41.38361 -81.15014 38862 ft 566 kts 85°
2026-05-06 01:07 41.38809 -81.04596 38863 ft 565 kts 83°
2026-05-06 01:08 41.39190 -80.94136 38865 ft 564 kts 80°
2026-05-06 01:08 41.39539 -80.83643 38863 ft 564 kts 79°
2026-05-06 01:09 41.39904 -80.73183 38859 ft 565 kts 81°
2026-05-06 01:09 41.40315 -80.62788 38871 ft 569 kts 84°
2026-05-06 01:10 41.40749 -80.52295 38871 ft 570 kts 85°
2026-05-06 01:10 41.41150 -80.41864 38870 ft 566 kts 84°
2026-05-06 01:11 41.41489 -80.31393 38869 ft 564 kts 81°
2026-05-06 01:11 41.41785 -80.20902 38863 ft 564 kts 79°
2026-05-06 01:12 41.41981 -80.10401 38857 ft 568 kts 87°
2026-05-06 01:12 41.41006 -79.99927 38854 ft 572 kts 98°
2026-05-06 01:13 41.40074 -79.89443 38850 ft 571 kts 96°
2026-05-06 01:13 41.39017 -79.78958 38846 ft 570 kts 93°
2026-05-06 01:13 41.38452 -79.73718 38719 ft 575 kts 97°
2026-05-06 01:14 41.37445 -79.63125 37877 ft 570 kts 97°
2026-05-06 01:14 41.36828 -79.57965 37598 ft 557 kts 93°
2026-05-06 01:14 41.36429 -79.52878 37454 ft 552 kts 96°
2026-05-06 01:15 41.35825 -79.47890 37319 ft 552 kts 96°
2026-05-06 01:15 41.35365 -79.42828 37190 ft 550 kts 93°
2026-05-06 01:15 41.34849 -79.37772 37045 ft 550 kts 98°
2026-05-06 01:15 41.34280 -79.32757 36884 ft 548 kts 93°
2026-05-06 01:16 41.33854 -79.27703 36633 ft 549 kts 97°
2026-05-06 01:16 41.33223 -79.22692 36402 ft 548 kts 96°
2026-05-06 01:16 41.32802 -79.17667 36175 ft 546 kts 95°
2026-05-06 01:16 41.32213 -79.12685 35940 ft 545 kts 98°
2026-05-06 01:17 41.31712 -79.07700 35688 ft 542 kts 94°
2026-05-06 01:17 41.31215 -79.02733 35425 ft 539 kts 99°
2026-05-06 01:17 41.30630 -78.97842 35168 ft 534 kts 95°
2026-05-06 01:17 41.30207 -78.92943 34932 ft 532 kts 99°
2026-05-06 01:18 41.29578 -78.88104 34701 ft 531 kts 97°
2026-05-06 01:18 41.29157 -78.83220 34349 ft 531 kts 96°
2026-05-06 01:18 41.28571 -78.78378 33988 ft 528 kts 100°
2026-05-06 01:18 41.28075 -78.73624 33593 ft 525 kts 96°
2026-05-06 01:19 41.27584 -78.68822 33196 ft 523 kts 101°
2026-05-06 01:19 41.26999 -78.64063 32999 ft 519 kts 97°
2026-05-06 01:19 41.25958 -78.54671 32877 ft 517 kts 99°
2026-05-06 01:20 41.24935 -78.45191 32855 ft 519 kts 101°
2026-05-06 01:20 41.23921 -78.35672 32855 ft 521 kts 102°
2026-05-06 01:21 41.22884 -78.26138 32852 ft 521 kts 101°
2026-05-06 01:21 41.21837 -78.16607 32850 ft 522 kts 98°
2026-05-06 01:22 41.20582 -78.07166 32840 ft 523 kts 98°
2026-05-06 01:22 41.19386 -77.97648 32840 ft 522 kts 99°
2026-05-06 01:23 41.18228 -77.88149 32831 ft 519 kts 102°
2026-05-06 01:23 41.17080 -77.78688 32831 ft 519 kts 103°
2026-05-06 01:24 41.15908 -77.69196 32473 ft 525 kts 102°
2026-05-06 01:24 41.15208 -77.64426 31987 ft 526 kts 101°
2026-05-06 01:24 41.14687 -77.59633 31535 ft 524 kts 101°
2026-05-06 01:25 41.14007 -77.54904 31062 ft 520 kts 102°
2026-05-06 01:25 41.13443 -77.50164 30613 ft 520 kts 99°
2026-05-06 01:25 41.12823 -77.45444 30173 ft 519 kts 104°
2026-05-06 01:25 41.12203 -77.40873 29729 ft 520 kts 100°
2026-05-06 01:26 41.11632 -77.36006 29207 ft 519 kts 103°
2026-05-06 01:26 41.10939 -77.31298 28709 ft 520 kts 101°
2026-05-06 01:26 41.10405 -77.26549 28229 ft 521 kts 102°
2026-05-06 01:26 41.09711 -77.21849 27733 ft 519 kts 103°
2026-05-06 01:27 41.09143 -77.17116 27265 ft 520 kts 101°
2026-05-06 01:27 41.08506 -77.12457 26809 ft 520 kts 104°
2026-05-06 01:27 41.07866 -77.07719 26362 ft 523 kts 101°
2026-05-06 01:27 41.07280 -77.02969 25902 ft 522 kts 104°
2026-05-06 01:28 41.06801 -76.99840 25618 ft 522 kts 104°
2026-05-06 01:28 41.06215 -76.95077 25152 ft 524 kts 102°
2026-05-06 01:28 41.05557 -76.90339 24743 ft 522 kts 105°
2026-05-06 01:28 41.04913 -76.85597 24316 ft 524 kts 102°
2026-05-06 01:29 41.04306 -76.80841 23898 ft 521 kts 105°
2026-05-06 01:29 41.03613 -76.76127 23490 ft 524 kts 103°
2026-05-06 01:29 41.03033 -76.71353 23020 ft 524 kts 104°
2026-05-06 01:29 41.02362 -76.66618 22537 ft 523 kts 105°
2026-05-06 01:30 41.01392 -76.61999 22024 ft 518 kts 114°
2026-05-06 01:30 41.00133 -76.57535 21567 ft 518 kts 114°
2026-05-06 01:30 40.99088 -76.52952 21106 ft 518 kts 109°
2026-05-06 01:30 40.98035 -76.48466 20635 ft 498 kts 114°
2026-05-06 01:31 40.96951 -76.44227 20178 ft 476 kts 110°
2026-05-06 01:31 40.96024 -76.40059 19754 ft 474 kts 112°
2026-05-06 01:31 40.94963 -76.35989 19341 ft 465 kts 112°
2026-05-06 01:31 40.94031 -76.31901 19108 ft 460 kts 110°
2026-05-06 01:32 40.93029 -76.27889 19001 ft 458 kts 113°
2026-05-06 01:32 40.92044 -76.23868 18934 ft 460 kts 110°
2026-05-06 01:32 40.91103 -76.19838 18928 ft 458 kts 112°
2026-05-06 01:32 40.90074 -76.15835 18721 ft 462 kts 112°
2026-05-06 01:33 40.89130 -76.11802 18196 ft 454 kts 111°
2026-05-06 01:33 40.88162 -76.07891 17536 ft 443 kts 113°
2026-05-06 01:33 40.87197 -76.04047 16886 ft 440 kts 111°
2026-05-06 01:33 40.86291 -76.00190 16246 ft 436 kts 111°
2026-05-06 01:34 40.85328 -75.96411 15616 ft 433 kts 112°
2026-05-06 01:34 40.84419 -75.92689 14941 ft 430 kts 110°
2026-05-06 01:34 40.83520 -75.88967 14335 ft 419 kts 111°
2026-05-06 01:34 40.82600 -75.85366 13755 ft 411 kts 111°
2026-05-06 01:35 40.81737 -75.81789 13291 ft 406 kts 110°
2026-05-06 01:35 40.80861 -75.78258 13093 ft 403 kts 111°
2026-05-06 01:35 40.79973 -75.74755 13018 ft 403 kts 111°
2026-05-06 01:35 40.79119 -75.71228 12970 ft 403 kts 110°
2026-05-06 01:36 40.78229 -75.67693 12452 ft 403 kts 111°
2026-05-06 01:36 40.77363 -75.64255 11957 ft 388 kts 111°
2026-05-06 01:36 40.76554 -75.60927 11449 ft 374 kts 111°
2026-05-06 01:36 40.75740 -75.57733 11019 ft 361 kts 112°
2026-05-06 01:37 40.74977 -75.54700 10772 ft 344 kts 111°
2026-05-06 01:37 40.74261 -75.51773 10553 ft 328 kts 112°
2026-05-06 01:37 40.73539 -75.48961 10318 ft 321 kts 114°
2026-05-06 01:37 40.72804 -75.46209 10134 ft 316 kts 113°
2026-05-06 01:38 40.72208 -75.43418 10050 ft 315 kts 106°
2026-05-06 01:38 40.71742 -75.40601 10009 ft 314 kts 107°
2026-05-06 01:38 40.71146 -75.37829 9993 ft 313 kts 110°
2026-05-06 01:38 40.70576 -75.35050 9982 ft 314 kts 106°
2026-05-06 01:39 40.70068 -75.32252 9980 ft 314 kts 108°
2026-05-06 01:39 40.69485 -75.29484 9973 ft 313 kts 109°
2026-05-06 01:39 40.68927 -75.26744 9968 ft 314 kts 107°
2026-05-06 01:39 40.68402 -75.23953 9970 ft 314 kts 108°
2026-05-06 01:40 40.67828 -75.21182 9965 ft 314 kts 109°
2026-05-06 01:40 40.67181 -75.18435 9962 ft 314 kts 115°
2026-05-06 01:40 40.66281 -75.15843 9964 ft 309 kts 123°
2026-05-06 01:40 40.65158 -75.13424 9963 ft 308 kts 128°
2026-05-06 01:41 40.63939 -75.11112 9964 ft 306 kts 131°
2026-05-06 01:41 40.62554 -75.09014 9962 ft 302 kts 140°
2026-05-06 01:41 40.61050 -75.07096 9976 ft 301 kts 140°
2026-05-06 01:41 40.59646 -75.05036 9966 ft 303 kts 133°
2026-05-06 01:42 40.58352 -75.02829 9970 ft 306 kts 128°
2026-05-06 01:42 40.57213 -75.00481 9964 ft 305 kts 123°
2026-05-06 01:42 40.56169 -74.98041 9958 ft 305 kts 122°
2026-05-06 01:42 40.55186 -74.95565 9960 ft 306 kts 117°
2026-05-06 01:43 40.54435 -74.92969 9967 ft 308 kts 111°
2026-05-06 01:43 40.53739 -74.90303 9968 ft 308 kts 114°
2026-05-06 01:43 40.52893 -74.87723 9969 ft 307 kts 116°
2026-05-06 01:43 40.52132 -74.85172 9967 ft 307 kts 112°
2026-05-06 01:44 40.51396 -74.82530 9966 ft 307 kts 115°
2026-05-06 01:44 40.50566 -74.79943 9969 ft 307 kts 115°
2026-05-06 01:44 40.49791 -74.77329 9969 ft 309 kts 113°
2026-05-06 01:44 40.49030 -74.74689 9971 ft 307 kts 114°
2026-05-06 01:45 40.48220 -74.72097 9971 ft 308 kts 115°
2026-05-06 01:45 40.47431 -74.69486 9967 ft 306 kts 114°
2026-05-06 01:45 40.46669 -74.66876 9970 ft 307 kts 114°
2026-05-06 01:45 40.45883 -74.64314 9971 ft 307 kts 115°
2026-05-06 01:46 40.45086 -74.61709 9973 ft 307 kts 114°
2026-05-06 01:46 40.44318 -74.59087 9974 ft 308 kts 112°
2026-05-06 01:46 40.43814 -74.56357 9968 ft 311 kts 94°
2026-05-06 01:46 40.43885 -74.53516 9973 ft 311 kts 84°
2026-05-06 01:47 40.44218 -74.50707 9974 ft 312 kts 79°
2026-05-06 01:47 40.44678 -74.47910 9979 ft 312 kts 77°
2026-05-06 01:47 40.45184 -74.45139 9998 ft 312 kts 76°
2026-05-06 01:47 40.45870 -74.42433 9999 ft 314 kts 68°
2026-05-06 01:48 40.46693 -74.39788 9956 ft 313 kts 69°
2026-05-06 01:48 40.47381 -74.37056 9535 ft 313 kts 73°
2026-05-06 01:48 40.48067 -74.34366 9209 ft 308 kts 69°
2026-05-06 01:48 40.48836 -74.31748 8923 ft 307 kts 70°
2026-05-06 01:49 40.49521 -74.29069 8610 ft 309 kts 72°
2026-05-06 01:49 40.50213 -74.26404 8309 ft 308 kts 70°
2026-05-06 01:49 40.50961 -74.23759 8009 ft 308 kts 70°
2026-05-06 01:49 40.51651 -74.21132 7712 ft 308 kts 72°
2026-05-06 01:50 40.52338 -74.18469 7414 ft 308 kts 71°
2026-05-06 01:50 40.53072 -74.15826 7195 ft 307 kts 71°
2026-05-06 01:50 40.53773 -74.13179 7103 ft 307 kts 72°
2026-05-06 01:50 40.54438 -74.10513 7055 ft 307 kts 72°
2026-05-06 01:51 40.55306 -74.08250 7017 ft 308 kts 47°
2026-05-06 01:51 40.56818 -74.06281 7029 ft 304 kts 39°
2026-05-06 01:51 40.58440 -74.04501 7028 ft 304 kts 35°
2026-05-06 01:51 40.60118 -74.02797 7036 ft 304 kts 34°
2026-05-06 01:52 40.61811 -74.01127 7035 ft 304 kts 33°
2026-05-06 01:52 40.63502 -73.99476 7024 ft 302 kts 33°
2026-05-06 01:52 40.65201 -73.97911 7025 ft 300 kts 21°
2026-05-06 01:52 40.67178 -73.97253 6747 ft 290 kts 353°
2026-05-06 01:53 40.69160 -73.97372 6537 ft 281 kts 349°
2026-05-06 01:53 40.71092 -73.97586 6297 ft 277 kts 347°
2026-05-06 01:53 40.73009 -73.97828 6048 ft 277 kts 347°
2026-05-06 01:53 40.74933 -73.98085 5794 ft 277 kts 347°
2026-05-06 01:54 40.76856 -73.98340 5550 ft 277 kts 347°
2026-05-06 01:54 40.78775 -73.98595 5248 ft 278 kts 347°
2026-05-06 01:54 40.80669 -73.98787 4996 ft 279 kts 357°
2026-05-06 01:54 40.82556 -73.98026 4746 ft 294 kts 26°
2026-05-06 01:55 40.84306 -73.96574 4486 ft 297 kts 30°
2026-05-06 01:55 40.86010 -73.95040 4277 ft 296 kts 30°
2026-05-06 01:55 40.87741 -73.93579 4029 ft 294 kts 28°
2026-05-06 01:55 40.89493 -73.92161 3783 ft 296 kts 27°
2026-05-06 01:56 40.91255 -73.90750 3538 ft 296 kts 28°
2026-05-06 01:56 40.93033 -73.89342 3304 ft 299 kts 27°
2026-05-06 01:56 40.94790 -73.87962 3139 ft 287 kts 27°
2026-05-06 01:56 40.96459 -73.86652 3079 ft 271 kts 27°
2026-05-06 01:57 40.98081 -73.85382 3057 ft 270 kts 27°
2026-05-06 01:57 40.99603 -73.84187 3030 ft 259 kts 26°
2026-05-06 01:57 41.01188 -73.82932 3007 ft 255 kts 27°
2026-05-06 01:57 41.02598 -73.81629 2995 ft 247 kts 49°
2026-05-06 01:58 41.03320 -73.79646 2990 ft 244 kts 92°
2026-05-06 01:58 41.03056 -73.77625 2994 ft 206 kts 135°
2026-05-06 01:58 41.02115 -73.76371 2995 ft 188 kts 154°
2026-05-06 01:58 41.01086 -73.75316 3004 ft 185 kts 158°
2026-05-06 01:59 41.00019 -73.74344 2997 ft 186 kts 158°
2026-05-06 01:59 40.98964 -73.73371 2987 ft 182 kts 162°
2026-05-06 01:59 40.97846 -73.73106 2994 ft 155 kts 205°
2026-05-06 01:59 40.96864 -73.73654 3005 ft 154 kts 208°
2026-05-06 02:00 40.95784 -73.73829 2999 ft 162 kts 186°
2026-05-06 02:00 40.94746 -73.74073 3001 ft 149 kts 214°
2026-05-06 02:00 40.93838 -73.74721 3005 ft 148 kts 213°
2026-05-06 02:00 40.92934 -73.75345 3001 ft 148 kts 212°
2026-05-06 02:01 40.92014 -73.75984 2758 ft 149 kts 213°
2026-05-06 02:01 40.91161 -73.76627 2570 ft 136 kts 214°
2026-05-06 02:01 40.90343 -73.77292 2384 ft 137 kts 215°
2026-05-06 02:01 40.89550 -73.77963 2180 ft 135 kts 215°
2026-05-06 02:02 40.88762 -73.78639 2039 ft 134 kts 214°
2026-05-06 02:02 40.87973 -73.79294 1973 ft 134 kts 213°
2026-05-06 02:02 40.87192 -73.79939 1929 ft 129 kts 213°
2026-05-06 02:02 40.86426 -73.80570 1810 ft 132 kts 212°
2026-05-06 02:03 40.85649 -73.81204 1602 ft 130 kts 212°
2026-05-06 02:03 40.84928 -73.81782 1447 ft 110 kts 213°
2026-05-06 02:03 40.84253 -73.82312 1316 ft 116 kts 214°
2026-05-06 02:03 40.83597 -73.82909 1157 ft 111 kts 216°
2026-05-06 02:04 40.82953 -73.83479 1011 ft 114 kts 212°
2026-05-06 02:04 40.82259 -73.84035 880 ft 116 kts 211°
2026-05-06 02:04 40.81521 -73.84660 685 ft 133 kts 211°
2026-05-06 02:04 40.80759 -73.85284 522 ft 129 kts 208°
2026-05-06 02:05 40.79975 -73.85923 377 ft 130 kts 208°
2026-05-06 02:05 40.79155 -73.86562 199 ft 138 kts 209°
2026-05-06 02:05 40.78349 -73.87234 42 ft 131 kts 209°
2026-05-06 02:05 40.77569 -73.87862 28 ft 131 kts 212°
2026-05-06 02:06 40.76856 -73.88504 84 ft 130 kts 212°
2026-05-06 02:06 40.76144 -73.89199 615 ft 120 kts 214°
2026-05-06 02:06 40.75475 -73.89853 1003 ft 120 kts 214°
2026-05-06 02:06 40.74833 -73.90426 1381 ft 106 kts 211°
2026-05-06 02:07 40.74118 -73.90995 1715 ft 125 kts 211°
2026-05-06 02:07 40.73398 -73.91660 2015 ft 128 kts 223°
2026-05-06 02:07 40.72896 -73.92699 2285 ft 154 kts 243°
2026-05-06 02:07 40.72768 -73.94334 2260 ft 197 kts 272°
2026-05-06 02:08 40.73182 -73.96064 2470 ft 198 kts 278°
2026-05-06 02:08 40.73670 -73.97792 2676 ft 203 kts 283°
2026-05-06 02:08 40.74453 -73.99411 2805 ft 217 kts 302°
2026-05-06 02:08 40.75726 -74.00626 2887 ft 238 kts 328°
2026-05-06 02:09 40.77377 -74.01109 2968 ft 249 kts 351°
2026-05-06 02:09 40.79105 -74.01221 2801 ft 251 kts 345°
2026-05-06 02:09 40.80865 -74.01154 2810 ft 259 kts
2026-05-06 02:09 40.82562 -74.00174 2828 ft 272 kts 33°
2026-05-06 02:10 40.84024 -73.98655 2860 ft 270 kts 38°
2026-05-06 02:10 40.85464 -73.97079 2973 ft 267 kts 39°
2026-05-06 02:10 40.86880 -73.95479 2985 ft 273 kts 39°
2026-05-06 02:10 40.88294 -73.93856 2972 ft 271 kts 40°
2026-05-06 02:11 40.89590 -73.92055 2996 ft 271 kts 40°
2026-05-06 02:11 40.91070 -73.90491 3016 ft 273 kts 34°
2026-05-06 02:11 40.92625 -73.89048 3005 ft 271 kts 31°
2026-05-06 02:11 40.94175 -73.87667 2999 ft 269 kts 31°
2026-05-06 02:12 40.95728 -73.86301 3022 ft 268 kts 31°
2026-05-06 02:12 40.97298 -73.84918 3010 ft 273 kts 31°
2026-05-06 02:12 40.98850 -73.83515 3013 ft 270 kts 31°
2026-05-06 02:12 41.00385 -73.82100 3009 ft 266 kts 36°
2026-05-06 02:13 41.01808 -73.80537 3001 ft 267 kts 48°
2026-05-06 02:13 41.02694 -73.78414 3028 ft 268 kts 86°
2026-05-06 02:13 41.02613 -73.76079 3018 ft 245 kts 125°
2026-05-06 02:13 41.01658 -73.74403 3033 ft 219 kts 158°
2026-05-06 02:14 41.00337 -73.73680 3056 ft 202 kts 178°
2026-05-06 02:14 40.98983 -73.73295 3036 ft 191 kts 179°
2026-05-06 02:14 40.97725 -73.72974 3018 ft 184 kts 180°
2026-05-06 02:14 40.96473 -73.72731 3022 ft 180 kts 184°
2026-05-06 02:15 40.95251 -73.72696 3016 ft 170 kts 199°
2026-05-06 02:15 40.94153 -73.73162 3017 ft 161 kts 213°
2026-05-06 02:15 40.93235 -73.73982 3020 ft 159 kts 222°
2026-05-06 02:15 40.92433 -73.74977 3015 ft 157 kts 230°
2026-05-06 02:16 40.91762 -73.76156 2766 ft 160 kts 233°
2026-05-06 02:16 40.90978 -73.77131 2501 ft 155 kts 211°
2026-05-06 02:16 40.90011 -73.77770 2270 ft 157 kts 209°
2026-05-06 02:16 40.89024 -73.78399 2029 ft 156 kts 210°
2026-05-06 02:17 40.88109 -73.79086 1914 ft 145 kts 214°
2026-05-06 02:17 40.87278 -73.79808 1863 ft 146 kts 215°
2026-05-06 02:17 40.86440 -73.80542 1829 ft 141 kts 213°
2026-05-06 02:17 40.85610 -73.81246 1620 ft 140 kts 212°
2026-05-06 02:18 40.84823 -73.81854 1389 ft 118 kts 212°
2026-05-06 02:18 40.84115 -73.82400 1276 ft 119 kts 214°
2026-05-06 02:18 40.83668 -73.82805 1221 ft 114 kts 214°
2026-05-06 02:18 40.83257 -73.83180 1138 ft 116 kts 214°
2026-05-06 02:19 40.82578 -73.83761 919 ft 120 kts 212°
2026-05-06 02:19 40.81856 -73.84371 792 ft 128 kts 211°
2026-05-06 02:19 40.81086 -73.84968 644 ft 131 kts 210°
2026-05-06 02:19 40.80273 -73.85644 418 ft 137 kts 212°
2026-05-06 02:20 40.78664 -73.86977 110 ft 130 kts 208°
2026-05-06 02:20 40.77978 -73.87532 17 ft 99 kts 212°
2026-05-06 02:20 40.77585 -73.87861 26 ft 43 kts 212°
2026-05-06 02:21 40.77423 -73.87988 24 ft 17 kts 206°
2026-05-06 02:21 40.77341 -73.87998 25 ft 9 kts 179°
2026-05-06 02:21 40.77299 -73.87979 23 ft 5 kts 119°
2026-05-06 02:21 40.77323 -73.87930 22 ft 11 kts 33°
2026-05-06 02:22 40.77412 -73.87856 21 ft 18 kts 32°
2026-05-06 02:22 40.77502 -73.87781 22 ft 14 kts 32°
2026-05-06 02:22 40.77578 -73.87717 23 ft 12 kts 32°
2026-05-06 02:22 40.77609 -73.87632 21 ft 10 kts 84°
2026-05-06 02:23 40.77650 -73.87573 21 ft 8 kts 34°
2026-05-06 02:23 40.77697 -73.87535 20 ft 8 kts 32°
2026-05-06 02:23 40.77742 -73.87475 18 ft 11 kts 58°
2026-05-06 02:23 40.77770 -73.87380 16 ft 12 kts 72°
2026-05-06 02:24 40.77772 -73.87291 17 ft 9 kts 104°
2026-05-06 02:24 40.77753 -73.87225 16 ft 7 kts 119°
2026-05-06 02:24 40.77728 -73.87173 18 ft 7 kts 123°
2026-05-06 02:24 40.77694 -73.87102 16 ft 11 kts 122°
2026-05-06 02:25 40.77646 -73.87004 17 ft 15 kts 123°
2026-05-06 02:25 40.77587 -73.86879 14 ft 17 kts 122°
2026-05-06 02:25 40.77528 -73.86765 13 ft 14 kts 131°
2026-05-06 02:25 40.77478 -73.86672 13 ft 11 kts 121°
2026-05-06 02:26 40.77443 -73.86597 14 ft 8 kts 122°
2026-05-06 02:26 40.77417 -73.86542 15 ft 7 kts 122°
2026-05-06 02:26 40.77384 -73.86476 14 ft 10 kts 123°
2026-05-06 02:26 40.77333 -73.86370 14 ft 17 kts 119°
2026-05-06 02:27 40.77264 -73.86225 13 ft 18 kts 122°
2026-05-06 02:27 40.77207 -73.86105 13 ft 13 kts 122°
2026-05-06 02:27 40.77164 -73.86030 13 ft 7 kts 154°
2026-05-06 02:27 40.77153 -73.86030 16 ft 0 kts 184°
2026-05-06 02:28 40.77139 -73.86039 18 ft 6 kts 217°
2026-05-06 02:28 40.77115 -73.86070 20 ft 8 kts 225°
2026-05-06 02:28 40.77078 -73.86116 22 ft 6 kts 223°
2026-05-06 02:28 40.77042 -73.86157 20 ft 8 kts 221°
2026-05-06 02:29 40.77020 -73.86175 20 ft 3 kts 186°
2026-05-06 02:29 40.77014 -73.86172 20 ft 0 kts 160°
2026-05-06 02:29 40.77000 -73.86157 20 ft 1 kts 135°
2026-05-06 02:29 40.76986 -73.86136 20 ft 4 kts 131°
2026-05-06 02:30 40.76982 -73.86130 20 ft 0 kts 131°